User: anonymous   Login
Location: Chevoux
(46.3801°N, 4.9476°E)
Time: 00:02:01
(UTC+00:00)
Language:

SWARM A - Orbit

View from above orbital plane
View from above orbital plane
View from above satellite
View from above satellite

Ground track
Ground track

The orbit data is extracted from the following two-line orbital elements,

1 39452U 13067B   21110.54261690  .00002518  00000-0  51654-4 0  9999
2 39452  87.3658  18.8673 0002305  88.5268 271.6254 15.45479908416596
Epoch (UTC): 20 April 2021 13:01:22
Eccentricity: 0.0002305
inclination: 87.3658°
perigee height: 428 km
apogee height: 431 km
right ascension of ascending node: 18.8673°
argument of perigee: 88.5268°
revolutions per day: 15.45479908
mean anomaly at epoch: 271.6254°
orbit number at epoch: 41659

The dashed part of the orbit path shows where the satellite is in the earth's shadow,  

DLR